Weather History for Lexington, NE

Change the Weather History Date:

Monday, December 31, 2012

  Actual Average Record
Temperature  
Mean Temperature 18 °F -  
Max Temperature 23 °F 37 °F 57 °F (1999)
Min Temperature 13 °F 12 °F -2 °F (2001)
Degree Days  
Heating Degree Days 47    
Moisture  
Dew Point 18 °F    
Average Humidity 89    
Maximum Humidity 92    
Minimum Humidity 84    
Precipitation  
Precipitation 0.00 in - - ()
Sea Level Pressure  
Sea Level Pressure 30.11 in    
Wind  
Wind Speed 8 mph (NNE)    
Max Wind Speed 14 mph    
Max Gust Speed -    
Visibility 9 miles    
Events Snow    
Averages and records for this station are not official NWS values.
T = Trace of Precipitation, MM = Missing Value Source: NWS Daily Summary

Daily Weather History Graph

Daily Weather History Graph

Search for Another Location

Airport:

Trip Planner

Search our weather history database for the weather conditions in past years. The results will help you decide how hot, cold, wet, or windy it might be!

Date:

Astronomy

Dec. 31, 2012 Rise Set
Actual Time 8:03 AM CST 5:21 PM CST
Civil Twilight 7:32 AM CST 5:52 PM CST
Nautical Twilight 6:58 AM CST 6:26 PM CST
Astronomical Twilight 6:24 AM CST 7:00 PM CST
Moon 8:55 PM CST (12/31) 9:44 AM CST (12/31)
Length of Visible Light 10h 20m
Length of Day
9h 18m
Waning Gibbous, 90% of the Moon is Illuminated
Dec 31
Waning Gibbous
Jan 4
Last Quarter
Jan 11
New
Jan 18
First Quarter
Jan 26
Full

Hourly Weather History & Observations

Time (CST) Temp. Windchill Dew Point Humidity Pressure Visibility Wind Dir Wind Speed Gust Speed Precip Events Conditions
12:15 AM 17.1 °F 7.6 °F 13.3 °F 85% 30.08 in 10.0 mi NW 6.9 mph - N/A   Clear
12:35 AM 15.1 °F 6.4 °F 11.5 °F 86% 30.11 in 10.0 mi WNW 5.8 mph - N/A   Clear
12:55 AM 13.8 °F 4.9 °F 9.9 °F 84% 30.11 in 10.0 mi West 5.8 mph - N/A   Clear
1:15 AM 15.1 °F 5.2 °F 11.3 °F 85% 30.11 in 10.0 mi WNW 6.9 mph - N/A   Clear
1:35 AM 14.7 °F 4.8 °F 11.3 °F 86% 30.10 in 10.0 mi WNW 6.9 mph - N/A   Clear
1:55 AM 15.8 °F 8.6 °F 12.6 °F 87% 30.10 in 10.0 mi WNW 4.6 mph - N/A   Scattered Clouds
2:15 AM 15.4 °F 6.8 °F 12.4 °F 88% 30.08 in 10.0 mi WNW 5.8 mph - N/A   Mostly Cloudy
2:35 AM 15.8 °F 7.2 °F 12.9 °F 88% 30.09 in 10.0 mi NW 5.8 mph - N/A   Mostly Cloudy
2:55 AM 19.6 °F 7.4 °F 16.9 °F 89% 30.09 in 10.0 mi North 11.5 mph - N/A   Overcast
3:15 AM 22.6 °F 10.1 °F 20.1 °F 90% 30.09 in 10.0 mi North 13.8 mph - N/A   Overcast
3:35 AM 23.5 °F 12.4 °F 21.0 °F 90% 30.10 in 10.0 mi North 11.5 mph - N/A   Overcast
3:55 AM 23.7 °F 13.3 °F 21.0 °F 89% 30.08 in 10.0 mi North 10.4 mph - N/A   Overcast
4:15 AM 23.9 °F 14.2 °F 21.2 °F 89% 30.08 in 10.0 mi NNE 9.2 mph - N/A   Overcast
4:35 AM 23.9 °F 16.8 °F 21.2 °F 89% 30.08 in 10.0 mi NNE 5.8 mph - N/A   Overcast
4:55 AM 23.5 °F 17.6 °F 20.8 °F 89% 30.09 in 10.0 mi NNE 4.6 mph - N/A   Mostly Cloudy
5:15 AM 23.2 °F 18.7 °F 20.7 °F 90% 30.08 in 10.0 mi North 3.5 mph - N/A   Scattered Clouds
5:35 AM 23.2 °F 17.2 °F 20.5 °F 89% 30.08 in 10.0 mi NNE 4.6 mph - N/A   Overcast
5:55 AM 23.0 °F 15.8 °F 20.3 °F 89% 30.07 in 10.0 mi NNE 5.8 mph - N/A   Overcast
6:15 AM 23.5 °F 16.4 °F 20.7 °F 89% 30.09 in 10.0 mi NE 5.8 mph - N/A   Overcast
6:55 AM 23.4 °F 13.5 °F 20.7 °F 89% 30.08 in 10.0 mi NE 9.2 mph - N/A   Overcast
7:15 AM 23.0 °F 11.7 °F 20.7 °F 91% 30.08 in 10.0 mi NE 11.5 mph - N/A   Overcast
7:35 AM 23.0 °F 13.1 °F 20.7 °F 91% 30.08 in 10.0 mi NNE 9.2 mph - N/A   Overcast
7:55 AM 22.8 °F 10.9 °F 20.7 °F 91% 30.08 in 10.0 mi NNE 12.7 mph - N/A   Overcast
8:15 AM 22.8 °F 12.2 °F 20.8 °F 92% 30.08 in 10.0 mi NE 10.4 mph - N/A   Overcast
8:35 AM 23.0 °F 11.7 °F 21.0 °F 92% 30.08 in 10.0 mi NE 11.5 mph - N/A   Overcast
8:55 AM 23.4 °F 12.2 °F 21.2 °F 91% 30.08 in 10.0 mi NE 11.5 mph - N/A   Overcast
9:15 AM 23.5 °F 12.4 °F 21.2 °F 91% 30.09 in 10.0 mi NE 11.5 mph - N/A   Overcast
9:35 AM 23.7 °F 11.5 °F 21.2 °F 90% 30.09 in 10.0 mi NE 13.8 mph - N/A   Overcast
9:55 AM 23.9 °F 11.7 °F 21.2 °F 89% 30.10 in 10.0 mi NE 13.8 mph - N/A   Overcast
10:15 AM 23.9 °F 11.7 °F 21.0 °F 89% 30.11 in 10.0 mi NE 13.8 mph - N/A   Overcast
10:35 AM 23.9 °F 12.3 °F 20.8 °F 88% 30.13 in 10.0 mi NE 12.7 mph - N/A   Overcast
10:55 AM 23.9 °F 13.5 °F 20.7 °F 87% 30.14 in 10.0 mi NE 10.4 mph - N/A   Overcast
11:15 AM 23.5 °F 12.4 °F 20.7 °F 89% 30.14 in 7.0 mi ENE 11.5 mph - N/A   Overcast
11:35 AM 23.0 °F 11.7 °F 20.3 °F 89% 30.13 in 10.0 mi ENE 11.5 mph - N/A   Overcast
11:55 AM 22.8 °F 11.5 °F 20.1 °F 89% 30.12 in 7.0 mi ENE 11.5 mph - N/A   Overcast
12:15 PM 22.5 °F 11.7 °F 20.1 °F 91% 30.11 in 7.0 mi NE 10.4 mph - N/A   Overcast
12:35 PM 22.5 °F 11.1 °F 19.9 °F 90% 30.11 in 7.0 mi NE 11.5 mph - N/A   Overcast
12:55 PM 21.7 °F 12.3 °F 19.4 °F 91% 30.10 in 5.0 mi ENE 8.1 mph - N/A   Overcast
1:15 PM 21.6 °F 10.6 °F 19.4 °F 91% 30.09 in 5.0 mi NE 10.4 mph - N/A   Overcast
1:35 PM 21.2 °F 9.5 °F 19.2 °F 92% 30.08 in 5.0 mi NE 11.5 mph - N/A   Overcast
1:55 PM 21.2 °F 10.9 °F 19.2 °F 92% 30.08 in 4.0 mi NE 9.2 mph - N/A Snow Light Snow
2:15 PM 21.2 °F 10.1 °F 19.0 °F 91% 30.08 in 1.8 mi NE 10.4 mph - N/A Snow Light Snow
2:35 PM 21.0 °F 9.3 °F 18.9 °F 91% 30.08 in 3.0 mi NE 11.5 mph - N/A   Overcast
2:55 PM 21.0 °F 10.6 °F 18.5 °F 90% 30.08 in 5.0 mi NE 9.2 mph - N/A Snow Light Snow
3:15 PM 21.0 °F 10.6 °F 18.3 °F 89% 30.08 in 7.0 mi NNE 9.2 mph - N/A   Overcast
3:35 PM 21.2 °F 10.1 °F 18.3 °F 89% 30.09 in 10.0 mi NE 10.4 mph - N/A   Overcast
3:55 PM 21.2 °F 11.7 °F 18.1 °F 88% 30.10 in 10.0 mi NNE 8.1 mph - N/A   Overcast
4:15 PM 21.2 °F 11.7 °F 18.1 °F 88% 30.10 in 7.0 mi NNE 8.1 mph - N/A   Overcast
4:35 PM 21.2 °F 11.7 °F 18.0 °F 87% 30.11 in 7.0 mi NNE 8.1 mph - N/A   Overcast
4:55 PM 21.2 °F 12.6 °F 17.6 °F 86% 30.11 in 10.0 mi NNE 6.9 mph - N/A   Overcast
5:15 PM 21.2 °F 11.7 °F 17.6 °F 86% 30.12 in 10.0 mi NNE 8.1 mph - N/A   Overcast
5:35 PM 21.0 °F 12.4 °F 17.6 °F 87% 30.12 in 5.0 mi NNE 6.9 mph - N/A Snow Light Snow
5:55 PM 20.8 °F 12.1 °F 17.6 °F 87% 30.12 in 7.0 mi NNE 6.9 mph - N/A   Overcast
6:15 PM 20.8 °F 11.2 °F 17.6 °F 87% 30.12 in 5.0 mi NE 8.1 mph - N/A Snow Light Snow
6:35 PM 20.7 °F 11.9 °F 17.8 °F 89% 30.12 in 5.0 mi NNE 6.9 mph - N/A   Overcast
6:55 PM 20.5 °F 11.7 °F 17.6 °F 89% 30.13 in 7.0 mi NE 6.9 mph - N/A   Overcast
7:15 PM 20.3 °F 12.5 °F 17.6 °F 89% 30.13 in 7.0 mi NE 5.8 mph - N/A   Overcast
7:35 PM 20.3 °F 12.5 °F 17.6 °F 89% 30.13 in 10.0 mi NNE 5.8 mph - N/A   Overcast
8:35 PM 19.8 °F 10.8 °F 17.2 °F 90% 30.14 in 10.0 mi NE 6.9 mph - N/A   Overcast
8:55 PM 19.6 °F 8.9 °F 17.1 °F 90% 30.14 in 10.0 mi North 9.2 mph - N/A   Overcast
9:35 PM 19.2 °F 12.5 °F 16.7 °F 90% 30.14 in 10.0 mi North 4.6 mph - N/A   Overcast
9:55 PM 19.0 °F 12.3 °F 16.7 °F 91% 30.15 in 10.0 mi NE 4.6 mph - N/A   Overcast
10:15 PM 19.0 °F - 16.7 °F 91% 30.16 in 10.0 mi Calm Calm - N/A   Overcast
10:35 PM 19.0 °F 13.9 °F 16.7 °F 91% 30.17 in 10.0 mi NE 3.5 mph - N/A   Overcast
10:55 PM 19.0 °F - 16.7 °F 91% 30.17 in 10.0 mi Calm Calm - N/A   Overcast
11:15 PM 19.0 °F - 16.7 °F 91% 30.18 in 10.0 mi Calm Calm - N/A   Overcast
11:35 PM 18.9 °F - 16.5 °F 91% 30.18 in 10.0 mi Calm Calm - N/A   Overcast
11:55 PM 18.9 °F 13.7 °F 16.5 °F 91% 30.18 in 10.0 mi North 3.5 mph - N/A   Overcast